H1 CPF 2 NER 2024 11 23 9 328 01 glonass144 H2 2207501 9144 52984 2024 11 23 0 0 0 2024 11 26 23 45 0 900 1 1 0 0 0 1 H9 10 0 60637 0.00000 0 -1778586.766 -24802473.176 -5638395.495 10 0 60637 900.00000 0 -1918886.737 -25308054.874 -2477353.501 10 0 60637 1800.00000 0 -2070054.307 -25410663.195 731859.000 10 0 60637 2700.00000 0 -2176903.437 -25111171.517 3926852.625 10 0 60637 3600.00000 0 -2185908.481 -24423700.589 7045573.957 10 0 60637 4500.00000 0 -2047713.863 -23375004.998 10027512.184 10 0 60637 5400.00000 0 -1719464.335 -22003350.506 12814870.723 10 0 60637 6300.00000 0 -1166857.300 -20356930.879 15353681.204 10 0 60637 7200.00000 0 -365830.852 -18491891.840 17594838.692 10 0 60637 8100.00000 0 696183.113 -16470045.599 19495039.095 10 0 60637 9000.00000 0 2019492.915 -14356371.742 21017601.918 10 0 60637 9900.00000 0 3591900.021 -12216408.432 22133163.959 10 0 60637 10800.00000 0 5388981.133 -10113641.740 22820232.168 10 0 60637 11700.00000 0 7374887.965 -8107000.366 23065586.515 10 0 60637 12600.00000 0 9503632.055 -6248558.253 22864526.368 10 0 60637 13500.00000 0 11720802.296 -4581538.680 22220956.523 10 0 60637 14400.00000 0 13965645.235 -3138700.866 21147311.688 10 0 60637 15300.00000 0 16173423.456 -1941174.499 19664320.797 10 0 60637 16200.00000 0 18277955.877 -997789.257 17800615.148 10 0 60637 17100.00000 0 20214236.159 -304926.232 15592186.928 10 0 60637 18000.00000 0 21921021.838 153103.054 13081707.291 10 0 60637 18900.00000 0 23343287.509 403166.105 10317715.685 10 0 60637 19800.00000 0 24434440.489 481944.474 7353694.551 10 0 60637 20700.00000 0 25158206.521 434151.291 4247045.983 10 0 60637 21600.00000 0 25490106.309 310405.849 1057988.983 10 0 60637 22500.00000 0 25418460.200 164854.439 -2151602.109 10 0 60637 23400.00000 0 24944877.629 52637.778 -5319395.862 10 0 60637 24300.00000 0 24084209.394 27312.261 -8383815.454 10 0 60637 25200.00000 0 22863963.228 138334.747 -11285239.983 10 0 60637 26100.00000 0 21323205.794 428718.396 -13967171.377 10 0 60637 27000.00000 0 19510996.011 932960.189 -16377343.421 10 0 60637 27900.00000 0 17484414.552 1675329.643 -18468750.412 10 0 60637 28800.00000 0 15306271.673 2668593.091 -20200574.420 10 0 60637 29700.00000 0 13042589.260 3913229.570 -21538992.214 10 0 60637 30600.00000 0 10759962.699 5397173.541 -22457845.300 10 0 60637 31500.00000 0 8522913.381 7096097.286 -22939159.268 10 0 60637 32400.00000 0 6391343.064 8974222.830 -22973501.759 10 0 60637 33300.00000 0 4418196.990 10985630.664 -22560171.591 10 0 60637 34200.00000 0 2647433.845 13076011.250 -21707215.012 10 0 60637 35100.00000 0 1112387.487 15184786.353 -20431268.580 10 0 60637 36000.00000 0 -165411.300 17247511.378 -18757231.666 10 0 60637 36900.00000 0 -1176904.369 19198457.674 -16717775.097 10 0 60637 37800.00000 0 -1925640.223 20973266.083 -14352695.851 10 0 60637 38700.00000 0 -2427368.417 22511559.803 -11708130.884 10 0 60637 39600.00000 0 -2709113.378 23759406.339 -8835646.207 10 0 60637 40500.00000 0 -2807768.834 24671524.762 -5791219.880 10 0 60637 41400.00000 0 -2768274.479 25213145.445 -2634139.824 10 0 60637 42300.00000 0 -2641454.102 25361444.351 574160.914 10 0 60637 43200.00000 0 -2481608.660 25106492.215 3771307.619 10 0 60637 44100.00000 0 -2343967.797 24451679.745 6895201.775 10 0 60637 45000.00000 0 -2282108.910 23413602.219 9885228.849 10 0 60637 45900.00000 0 -2345453.690 22021409.750 12683432.225 10 0 60637 46800.00000 0 -2576948.236 20315651.861 15235630.562 10 0 60637 47700.00000 0 -3011024.557 18346665.951 17492457.394 10 0 60637 48600.00000 0 -3671928.936 16172577.939 19410303.784 10 0 60637 49500.00000 0 -4572486.937 13856998.908 20952147.086 10 0 60637 50400.00000 0 -5713356.327 11466513.660 22088251.262 10 0 60637 51300.00000 0 -7082798.860 9068064.971 22796726.870 10 0 60637 52200.00000 0 -8656980.384 6726341.068 23063941.417 10 0 60637 53100.00000 0 -10400787.089 4501273.200 22884773.454 10 0 60637 54000.00000 0 -12269124.611 2445745.269 22262706.459 10 0 60637 54900.00000 0 -14208647.087 603608.568 21209761.143 10 0 60637 55800.00000 0 -16159845.670 -991917.840 19746267.486 10 0 60637 56700.00000 0 -18059411.291 -2319396.301 17900480.358 10 0 60637 57600.00000 0 -19842775.056 -3369822.879 15708045.164 10 0 60637 58500.00000 0 -21446721.996 -4146756.425 13211322.575 10 0 60637 59400.00000 0 -22811970.492 -4665919.552 10458583.897 10 0 60637 60300.00000 0 -23885610.528 -4954288.277 7503091.095 10 0 60637 61200.00000 0 -24623299.108 -5048708.265 4402077.924 10 0 60637 62100.00000 0 -24991120.732 -4994095.525 1215650.694 10 0 60637 63000.00000 0 -24967034.127 -4841296.879 -1994370.840 10 0 60637 63900.00000 0 -24541843.312 -4644700.246 -5165650.399 10 0 60637 64800.00000 0 -23719650.653 -4459695.670 -8236546.729 10 0 60637 65700.00000 0 -22517771.128 -4340094.810 -11147315.967 10 0 60637 66600.00000 0 -20966109.668 -4335618.817 -13841280.763 10 0 60637 67500.00000 0 -19106026.107 -4489562.036 -16265942.686 10 0 60637 68400.00000 0 -16988734.012 -4836731.867 -18374015.313 10 0 60637 69300.00000 0 -14673299.591 -5401753.681 -20124356.920 10 0 60637 70200.00000 0 -12224323.887 -6197814.306 -21482783.716 10 0 60637 71100.00000 0 -9709405.001 -7225899.124 -22422746.947 10 0 60637 72000.00000 0 -7196486.602 -8474556.804 -22925859.934 10 0 60637 72900.00000 0 -4751203.747 -9920203.282 -22982264.196 10 0 60637 73800.00000 0 -2434337.245 -11527953.583 -22590827.029 10 0 60637 74700.00000 0 -299483.221 -13252947.471 -21759166.351 10 0 60637 75600.00000 0 1608964.666 -15042113.858 -20503502.115 10 0 60637 76500.00000 0 3257436.171 -16836299.989 -18848337.114 10 0 60637 77400.00000 0 4624341.307 -18572675.780 -16825973.521 10 0 60637 78300.00000 0 5700715.607 -20187311.773 -14475874.918 10 0 60637 79200.00000 0 6490328.198 -21617821.762 -11843886.727 10 0 60637 80100.00000 0 7009249.935 -22805958.185 -8981331.019 10 0 60637 81000.00000 0 7284901.958 -23700050.527 -5943994.272 10 0 60637 81900.00000 0 7354627.086 -24257183.687 -2791028.835 10 0 60637 82800.00000 0 7263846.724 -24445024.487 416209.284 10 0 60637 83700.00000 0 7063883.413 -24243219.683 3615362.606 10 0 60637 84600.00000 0 6809543.041 -23644307.243 6744289.938 10 0 60637 85500.00000 0 6556560.551 -22654103.451 9742275.296 10 0 60638 0.00000 0 6359018.224 -21291550.824 12551203.867 10 0 60638 900.00000 0 6266846.103 -19588033.565 15116683.712 10 0 60638 1800.00000 0 6323510.392 -17586192.237 17389088.194 10 0 60638 2700.00000 0 6563986.566 -15338285.599 19324504.887 10 0 60638 3600.00000 0 7013102.158 -12904170.174 20885570.050 10 0 60638 4500.00000 0 7684318.009 -10348981.034 22042175.572 10 0 60638 5400.00000 0 8578998.419 -7740609.811 22772036.073 10 0 60638 6300.00000 0 9686200.304 -5147083.587 23061106.767 10 0 60638 7200.00000 0 10982990.074 -2633951.920 22903845.292 10 0 60638 8100.00000 0 12435275.272 -261788.482 22303313.464 10 0 60638 9000.00000 0 13999117.106 1916091.143 21271117.455 10 0 60638 9900.00000 0 15622470.245 3855602.863 19827187.560 10 0 60638 10800.00000 0 17247278.831 5523478.655 17999401.309 10 0 60638 11700.00000 0 18811842.902 6898398.010 15823056.238 10 0 60638 12600.00000 0 20253358.033 7971620.324 13340201.254 10 0 60638 13500.00000 0 21510523.510 8747092.568 10598838.023 10 0 60638 14400.00000 0 22526110.965 9241028.045 7652006.305 10 0 60638 15300.00000 0 23249386.454 9480973.836 4556769.530 10 0 60638 16200.00000 0 23638284.400 9504405.763 1373119.104 10 0 60638 17100.00000 0 23661241.558 9356909.619 -1837182.220 10 0 60638 18000.00000 0 23298612.820 9090024.917 -5011795.877 10 0 60638 18900.00000 0 22543607.791 8758842.019 -8089018.808 10 0 60638 19800.00000 0 21402706.886 8419454.234 -11008986.778 10 0 60638 20700.00000 0 19895537.481 8126373.104 -13714845.673 10 0 60638 21600.00000 0 18054213.358 7930016.980 -16153867.201 10 0 60638 22500.00000 0 15922163.392 7874380.303 -18278486.400 10 0 60638 23400.00000 0 13552497.177 7994983.569 -20047239.758 10 0 60638 24300.00000 0 11005974.957 8317192.245 -21425584.755 10 0 60638 25200.00000 0 8348666.132 8854977.347 -22386584.042 10 0 60638 26100.00000 0 5649393.947 9610171.662 -22911440.156 10 0 60638 27000.00000 0 2977073.066 10572254.471 -22989869.753 10 0 60638 27900.00000 0 398051.366 11718675.162 -22620309.596 10 0 60638 28800.00000 0 -2026432.839 13015703.015 -21809949.910 10 0 60638 29700.00000 0 -4242571.866 14419767.977 -20574594.269 10 0 60638 30600.00000 0 -6205991.107 15879236.199 -18938348.661 10 0 60638 31500.00000 0 -7883349.506 17336545.395 -16933145.903 10 0 60638 32400.00000 0 -9253471.843 18730609.656 -14598115.008 10 0 60638 33300.00000 0 -10307966.569 19999391.754 -11978808.242 10 0 60638 34200.00000 0 -11051304.857 21082533.706 -9126301.721 10 0 60638 35100.00000 0 -11500359.527 21923933.968 -6096187.967 10 0 60638 36000.00000 0 -11683425.538 22474161.913 -2947481.104 10 0 60638 36900.00000 0 -11638765.692 22692607.378 258542.796 10 0 60638 37800.00000 0 -11412745.358 22549274.509 3459546.530 10 0 60638 38700.00000 0 -11057637.121 22026144.575 6593349.391 10 0 60638 39600.00000 0 -10629190.040 21118050.845 9599137.145 10 0 60638 40500.00000 0 -10184067.529 19833029.571 12418640.442 10 0 60638 41400.00000 0 -9777262.979 18192133.169 14997258.832 10 0 60638 42300.00000 0 -9459602.421 16228714.394 17285108.996 10 0 60638 43200.00000 0 -9275439.328 13987212.147 19237977.783 10 0 60638 44100.00000 0 -9260637.919 11521490.057 20818162.893 10 0 60638 45000.00000 0 -9440928.905 8892797.085 21995186.372 10 0 60638 45900.00000 0 -9830705.667 6167434.527 22746368.801 10 0 60638 46800.00000 0 -10432310.517 3414225.292 23057254.587 10 0 60638 47700.00000 0 -11235840.260 701889.056 22921881.509 10 0 60638 48600.00000 0 -12219479.025 -1903569.755 22342890.280 10 0 60638 49500.00000 0 -13350344.686 -4341354.934 21331472.554 10 0 60638 50400.00000 0 -14585814.234 -6558151.157 19907158.412 10 0 60638 51300.00000 0 -15875273.833 -8510084.098 18097446.951 10 0 60638 52200.00000 0 -17162221.843 -10164288.329 15937286.201 10 0 60638 53100.00000 0 -18386638.337 -11500019.164 13468411.156 10 0 60638 54000.00000 0 -19487523.390 -12509263.025 10738551.253 10 0 60638 54900.00000 0 -20405498.951 -13196821.362 7800521.078 10 0 60638 55800.00000 0 -21085365.925 -13579864.646 4711210.497 10 0 60638 56700.00000 0 -21478509.303 -13686974.933 1530492.564 10 0 60638 57600.00000 0 -21545049.898 -13556716.798 -1679930.534 10 0 60638 58500.00000 0 -21255651.225 -13235796.339 -4857721.552 10 0 60638 59400.00000 0 -20592904.012 -12776885.517 -7941119.219 10 0 60638 60300.00000 0 -19552228.234 -12236203.528 -10870142.452 10 0 60638 61200.00000 0 -18142252.573 -11670957.536 -13587763.731 10 0 60638 62100.00000 0 -16384653.159 -11136751.438 -16041028.037 10 0 60638 63000.00000 0 -14313456.266 -10685073.023 -18182094.677 10 0 60638 63900.00000 0 -11973832.337 -10360966.831 -19969180.726 10 0 60638 64800.00000 0 -9420430.358 -10200992.364 -21367386.797 10 0 60638 65700.00000 0 -6715321.150 -10231555.281 -22349388.212 10 0 60638 66600.00000 0 -3925634.864 -10467683.430 -22895977.358 10 0 60638 67500.00000 0 -1120990.998 -10912300.626 -22996446.044 10 0 60638 68400.00000 0 1629171.886 -11556029.922 -22648799.922 10 0 60638 69300.00000 0 4258255.168 -12377535.442 -21859800.442 10 0 60638 70200.00000 0 6705036.838 -13344388.854 -20644833.271 10 0 60638 71100.00000 0 8915979.852 -14414424.068 -19027605.695 10 0 60638 72000.00000 0 10847215.898 -15537522.816 -17039678.968 10 0 60638 72900.00000 0 12466122.075 -16657755.272 -14719845.052 10 0 60638 73800.00000 0 13752425.379 -17715784.614 -12113360.336 10 0 60638 74700.00000 0 14698789.913 -18651433.127 -9271052.061 10 0 60638 75600.00000 0 15310863.921 -19406300.515 -6248315.708 10 0 60638 76500.00000 0 15606786.708 -19926322.999 -3104023.986 10 0 60638 77400.00000 0 15616178.471 -20164164.405 100630.192 10 0 60638 78300.00000 0 15378658.046 -20081337.848 3303333.077 10 0 60638 79200.00000 0 14941953.374 -19649968.387 6441867.482 10 0 60638 80100.00000 0 14359686.507 -18854122.513 9455323.732 10 0 60638 81000.00000 0 13688928.294 -17690648.958 12285280.215 10 0 60638 81900.00000 0 12987627.065 -16169496.123 14876930.644 10 0 60638 82800.00000 0 12312020.299 -14313493.508 17180136.534 10 0 60638 83700.00000 0 11714138.303 -12157606.901 19150385.398 10 0 60638 84600.00000 0 11239504.404 -9747698.849 20749637.346 10 0 60638 85500.00000 0 10925127.369 -7138846.123 21947045.173 10 0 60639 0.00000 0 10797869.164 -4393284.069 22719535.573 10 0 60639 900.00000 0 10873255.244 -1578060.857 23052242.161 10 0 60639 1800.00000 0 11154776.252 1237498.675 22938782.321 10 0 60639 2700.00000 0 11633709.374 3984421.046 22381374.956 10 0 60639 3600.00000 0 12289466.722 6596693.545 21390796.266 10 0 60639 4500.00000 0 13090456.200 9013750.395 19986174.981 10 0 60639 5400.00000 0 13995419.507 11182734.461 18194630.469 10 0 60639 6300.00000 0 14955192.303 13060442.464 16050759.800 10 0 60639 7200.00000 0 15914814.057 14614874.361 13595982.457 10 0 60639 8100.00000 0 16815900.498 15826323.457 10877753.893 10 0 60639 9000.00000 0 17599180.329 16687962.400 7948661.603 10 0 60639 9900.00000 0 18207090.540 17205900.705 4865419.811 10 0 60639 10800.00000 0 18586321.662 17398711.210 1687780.985 10 0 60639 11700.00000 0 18690205.735 17296444.919 -1522615.595 10 0 60639 12600.00000 0 18480845.731 16939175.038 -4703436.414 10 0 60639 13500.00000 0 17930895.453 16375131.040 -7792864.392 10 0 60639 14400.00000 0 17024913.164 15658501.011 -10730803.930 10 0 60639 15300.00000 0 15760229.813 14846994.927 -13460056.310 10 0 60639 16200.00000 0 14147293.011 13999271.881 -15927441.830 10 0 60639 17100.00000 0 12209469.910 13172340.458 -18084845.936 10 0 60639 18000.00000 0 9982315.086 12419042.778 -19890167.990 10 0 60639 18900.00000 0 7512332.176 11785729.486 -21308153.284 10 0 60639 19800.00000 0 4855279.564 11310224.884 -22311091.220 10 0 60639 20700.00000 0 2074089.854 11020169.270 -22879365.286 10 0 60639 21600.00000 0 -763510.650 10931809.395 -23001843.509 10 0 60639 22500.00000 0 -3587583.454 11049288.943 -22676101.264 10 0 60639 23400.00000 0 -6328652.679 11364469.562 -21908471.730 10 0 60639 24300.00000 0 -8920361.485 11857290.261 -20713922.802 10 0 60639 25200.00000 0 -11301999.130 12496650.025 -19115762.774 10 0 60639 26100.00000 0 -13420793.079 13241775.984 -17145180.613 10 0 60639 27000.00000 0 -15233870.586 14044018.747 -14840630.084 10 0 60639 27900.00000 0 -16709808.177 14848998.130 -12247070.198 10 0 60639 28800.00000 0 -17829705.045 15599007.539 -9415077.482 10 0 60639 29700.00000 0 -18587736.621 16235574.202 -6399848.296 10 0 60639 30600.00000 0 -18991166.833 16702065.882 -3260111.633 10 0 60639 31500.00000 0 -19059820.548 16946232.884 -56974.783 10 0 60639 32400.00000 0 -18825040.669 16922577.140 3147274.573 10 0 60639 33300.00000 0 -18328176.118 16594447.853 6290385.500 10 0 60639 34200.00000 0 -17618666.595 15935775.111 9311355.716 10 0 60639 35100.00000 0 -16751806.723 14932368.566 12151614.242 10 0 60639 36000.00000 0 -15786285.204 13582726.911 14756151.863 10 0 60639 36900.00000 0 -14781603.492 11898324.670 17074577.791 10 0 60639 37800.00000 0 -13795482.857 9903364.795 19062082.944 10 0 60639 38700.00000 0 -12881368.469 7634007.740 20680292.403 10 0 60639 39600.00000 0 -12086134.474 5137109.277 21897992.008 10 0 60639 40500.00000 0 -11448085.069 2468519.296 22691716.648 10 0 60639 41400.00000 0 -10995333.876 -308988.467 23046190.479 10 0 60639 42300.00000 0 -10744628.054 -3128071.042 22954611.870 10 0 60639 43200.00000 0 -10700665.093 -5919359.143 22418778.662 10 0 60639 44100.00000 0 -10855929.948 -8614084.946 21449051.882 10 0 60639 45000.00000 0 -11191058.896 -11146687.911 20064158.704 10 0 60639 45900.00000 0 -11675714.920 -13457292.655 18290838.064 10 0 60639 46800.00000 0 -12269938.483 -15493958.045 16163334.892 10 0 60639 47700.00000 0 -12925917.956 -17214605.627 13722751.514 10 0 60639 48600.00000 0 -13590106.519 -18588548.321 11016267.348 10 0 60639 49500.00000 0 -14205597.750 -19597556.430 8096240.385 10 0 60639 50400.00000 0 -14714660.982 -20236416.593 5019206.486 10 0 60639 51300.00000 0 -15061330.317 -20512960.164 1844794.582 10 0 60639 52200.00000 0 -15193938.390 -20447559.296 -1365422.115 10 0 60639 53100.00000 0 -15067487.607 -20072111.225 -4549117.113 10 0 60639 54000.00000 0 -14645757.880 -19428552.758 -7644420.925 10 0 60639 54900.00000 0 -13903060.391 -18566966.875 -10591126.885 10 0 60639 55800.00000 0 -12825561.453 -17543360.876 -13331868.505 10 0 60639 56700.00000 0 -11412118.386 -16417209.594 -15813244.722 10 0 60639 57600.00000 0 -9674589.765 -15248867.512 -17986870.231 10 0 60639 58500.00000 0 -7637604.579 -14096959.396 -19810329.475 10 0 60639 59400.00000 0 -5337797.757 -13015860.205 -21248014.785 10 0 60639 60300.00000 0 -2822542.148 -12053371.379 -22271831.483 10 0 60639 61200.00000 0 -148228.549 -11248692.340 -22861755.439 10 0 60639 62100.00000 0 2621835.423 -10630773.543 -23006231.586 10 0 60639 63000.00000 0 5419820.537 -10217121.114 -22702405.139 10 0 60639 63900.00000 0 8175965.476 -10013103.899 -21956180.611 10 0 60639 64800.00000 0 10821252.681 -10011792.236 -20782107.260 10 0 60639 65700.00000 0 13290058.666 -10194335.043 -19203093.099 10 0 60639 66600.00000 0 15522667.939 -10530858.776 -17249953.121 10 0 60639 67500.00000 0 17467545.419 -10981849.439 -14960800.834 10 0 60639 68400.00000 0 19083272.497 -11499958.158 -12380295.412 10 0 60639 69300.00000 0 20340066.101 -12032152.678 -9558759.860 10 0 60639 70200.00000 0 21220818.047 -12522122.418 -6551188.261 10 0 60639 71100.00000 0 21721612.319 -12912833.927 -3416162.480 10 0 60639 72000.00000 0 21851700.244 -13149127.355 -214700.587 10 0 60639 72900.00000 0 21632936.597 -13180243.045 2990939.448 10 0 60639 73800.00000 0 21098702.514 -12962170.646 6138476.514 10 0 60639 74700.00000 0 20292362.679 -12459721.061 9166819.078 10 0 60639 75600.00000 0 19265323.729 -11648233.703 12017249.844 10 0 60639 76500.00000 0 18074777.151 -10514847.272 14634559.314 10 0 60639 77400.00000 0 16781222.744 -9059280.968 16968106.600 10 0 60639 78300.00000 0 15445877.234 -7294093.749 18972787.763 10 0 60639 79200.00000 0 14128076.704 -5244411.094 20609894.130 10 0 60639 80100.00000 0 12882781.115 -2947130.805 21847845.410 10 0 60639 81000.00000 0 11758284.240 -449640.725 22662785.053 10 0 60639 81900.00000 0 10794223.356 2191898.895 23039027.899 10 0 60639 82800.00000 0 10019970.242 4914638.091 22969352.856 10 0 60639 83700.00000 0 9453469.123 7651399.958 22455136.008 10 0 60639 84600.00000 0 9100568.717 10333227.391 21506322.204 10 0 60639 85500.00000 0 8954875.297 12892010.148 20141235.782 10 0 60640 0.00000 0 8998132.348 15263085.206 18386233.904 10 0 60640 900.00000 0 9201110.915 17387705.649 16275207.311 10 0 60640 1800.00000 0 9524973.637 19215274.073 13848939.410 10 0 60640 2700.00000 0 9923056.030 20705253.081 11154331.486 10 0 60640 3600.00000 0 10342991.088 21828670.837 8243509.784 10 0 60640 4500.00000 0 10729088.706 22569160.408 5172829.406 10 0 60640 5400.00000 0 11024870.413 22923489.038 2001793.233 10 0 60640 6300.00000 0 11175652.910 22901554.634 -1208094.170 10 0 60640 7200.00000 0 11131071.228 22525848.787 -4394515.936 10 0 60640 8100.00000 0 10847434.316 21830407.992 -7495552.708 10 0 60640 9000.00000 0 10289812.348 20859296.296 -10450889.160 10 0 60640 9900.00000 0 9433765.872 19664682.517 -13202993.270 10 0 60640 10800.00000 0 8266641.717 18304592.583 -15698244.625 10 0 60640 11700.00000 0 6788378.596 16840431.465 -17887988.964 10 0 60640 12600.00000 0 5011786.032 15334379.282 -19729497.385 10 0 60640 13500.00000 0 2962282.423 13846771.624 -21186810.638 10 0 60640 14400.00000 0 677101.046 12433575.002 -22231451.160 10 0 60640 15300.00000 0 -1796004.560 11144064.376 -22842988.201 10 0 60640 16200.00000 0 -4400503.080 10018801.140 -23009444.383 10 0 60640 17100.00000 0 -7073203.898 9087997.198 -22727535.274 10 0 60640 18000.00000 0 -9746663.575 8370334.242 -22002736.908 10 0 60640 18900.00000 0 -12351780.000 7872287.978 -20849179.714 10 0 60640 19800.00000 0 -14820465.803 7587985.352 -19289370.828 10 0 60640 20700.00000 0 -17088289.068 7499600.183 -17353750.267 10 0 60640 21600.00000 0 -19096970.732 7578269.411 -15080089.914 10 0 60640 22500.00000 0 -20796634.066 7785490.019 -12512747.433 10 0 60640 23400.00000 0 -22147712.142 8074936.058 -9701790.388 10 0 60640 24300.00000 0 -23122433.786 8394617.290 -6702008.492 10 0 60640 25200.00000 0 -23705826.513 8689286.485 -3571834.244 10 0 60640 26100.00000 0 -23896195.569 8902991.898 -372194.150 10 0 60640 27000.00000 0 -23705060.553 8981665.531 2834685.978 10 0 60640 27900.00000 0 -23156554.148 8875636.620 5986497.394 10 0 60640 28800.00000 0 -22286310.229 8541963.310 9022061.950 10 0 60640 29700.00000 0 -21139890.037 7946483.666 11882518.719 10 0 60640 30600.00000 0 -19770814.269 7065499.475 14512460.631 10 0 60640 31500.00000 0 -18238285.029 5887022.128 16860999.353 10 0 60640 32400.00000 0 -16604694.017 4411528.568 18882738.621 10 0 60640 33300.00000 0 -14933021.552 2652195.908 20538638.326 10 0 60640 34200.00000 0 -13284234.888 634605.120 21796754.096 10 0 60640 35100.00000 0 -11714793.606 -1604073.959 22632839.637 10 0 60640 36000.00000 0 -10274364.815 -4016382.797 23030801.806 10 0 60640 36900.00000 0 -9003841.852 -6546306.314 22983000.984 10 0 60640 37800.00000 0 -7933747.260 -9131366.326 22490392.028 10 0 60640 38700.00000 0 -7083084.955 -11704991.077 21562503.740 10 0 60640 39600.00000 0 -6458688.013 -14199064.402 20217257.357 10 0 60640 40500.00000 0 -6055088.219 -16546550.754 18480627.268 10 0 60640 41400.00000 0 -5854912.248 -18684089.063 16386149.626 10 0 60640 42300.00000 0 -5829787.739 -20554449.311 13974287.241 10 0 60640 43200.00000 0 -5941721.584 -22108750.958 11291661.547 10 0 60640 44100.00000 0 -6144893.131 -23308351.657 8390165.016 10 0 60640 45000.00000 0 -6387787.636 -24126327.756 5325969.716 10 0 60640 45900.00000 0 -6615580.757 -24548484.529 2158449.979 10 0 60640 46800.00000 0 -6772674.014 -24573853.248 -1050960.960 10 0 60640 47700.00000 0 -6805274.273 -24214653.307 -4239958.711 10 0 60640 48600.00000 0 -6663907.862 -23495719.872 -7346577.036 10 0 60640 49500.00000 0 -6305762.194 -22453419.975 -10310395.057 10 0 60640 50400.00000 0 -5696754.494 -21134101.580 -13073718.370 10 0 60640 51300.00000 0 -4813238.359 -19592140.075 -15582710.365 10 0 60640 52200.00000 0 -3643273.935 -17887663.828 -17788450.854 10 0 60640 53100.00000 0 -2187405.695 -16084054.320 -19647900.409 10 0 60640 54000.00000 0 -458912.669 -14245326.079 -21124750.688 10 0 60640 54900.00000 0 1516481.769 -12433496.881 -22190143.321 10 0 60640 55800.00000 0 3701430.415 -10706059.243 -22823242.534 10 0 60640 56700.00000 0 6048280.353 -9113659.930 -23011649.739 10 0 60640 57600.00000 0 8500834.758 -7698085.376 -22751651.454 10 0 60640 58500.00000 0 10996485.452 -6490637.891 -22048295.356 10 0 60640 59400.00000 0 13468627.412 -5510970.847 -20915292.727 10 0 60640 60300.00000 0 15849254.315 -4766431.425 -19374749.079 10 0 60640 61200.00000 0 18071626.301 -4251937.824 -17456728.299 10 0 60640 62100.00000 0 20072898.002 -3950394.982 -15198659.056 10 0 60640 63000.00000 0 21796596.457 -3833629.838 -12644595.474 10 0 60640 63900.00000 0 23194844.852 -3863804.934 -9844347.200 10 0 60640 64800.00000 0 24230238.913 -3995248.763 -6852496.683 10 0 60640 65700.00000 0 24877297.573 -4176623.558 -3727323.794 10 0 60640 66600.00000 0 25123427.793 -4353336.912 -529659.954 10 0 60640 67500.00000 0 24969364.149 -4470093.511 2678304.851 10 0 60640 68400.00000 0 24429066.214 -4473477.606 5834237.909 10 0 60640 69300.00000 0 23529079.746 -4314455.922 8876877.987 10 0 60640 70200.00000 0 22307390.297 -3950694.628 11747223.817 10 0 60640 71100.00000 0 20811819.022 -3348592.250 14389673.697 10 0 60640 72000.00000 0 19098029.390 -2484942.937 16753094.399 10 0 60640 72900.00000 0 17227229.237 -1348160.351 18791799.452 10 0 60640 73800.00000 0 15263664.755 60988.841 20466419.010 10 0 60640 74700.00000 0 13272010.972 1729172.324 21744645.881 10 0 60640 75600.00000 0 11314766.854 3630809.136 22601844.881 10 0 60640 76500.00000 0 9449762.358 5728903.350 23021515.328 10 0 60640 77400.00000 0 7727879.644 7976360.302 22995599.109 10 0 60640 78300.00000 0 6191081.393 10317731.682 22524629.492 10 0 60640 79200.00000 0 4870826.424 12691318.407 21617718.470 10 0 60640 80100.00000 0 3786936.805 15031545.613 20292383.057 10 0 60640 81000.00000 0 2946962.176 17271513.047 18574213.565 10 0 60640 81900.00000 0 2346066.760 19345616.759 16496389.477 10 0 60640 82800.00000 0 1967443.162 21192134.798 14099051.105 10 0 60640 83700.00000 0 1783235.483 22755670.653 11428537.773 10 0 60640 84600.00000 0 1755933.265 23989353.567 8536505.723 10 0 60640 85500.00000 0 1840178.167 24856704.242 5478941.376 99